Location: Harbor Island
(32.3990°N, 80.4435°W)
Time: 03:46:19
(UTC-04:00)

Daily predictions for brighter satellites

Satellite Brightness Start Highest point End
(mag) Time Altitude Azimuth Time Altitude Azimuth Time Altitude Azimuth
Cosmos 2219 Rocket 2.9 00:01:57 10° NNW 00:06:29 48° WNW 00:06:29 48° WNW
Cosmos 1125 Rocket 4.2 00:10:01 51° N 00:10:01 51° N 00:14:02 10° NNE
SeaSat 1 3.7 00:12:26 34° NNE 00:12:26 34° NNE 00:15:54 10° N
Lacrosse 4 Rocket 3.6 00:22:31 10° N 00:24:39 25° N 00:24:39 25° N
Cosmos 2237 Rocket 3.3 00:32:06 10° NW 00:36:00 37° WNW 00:36:00 37° WNW
Meteor 2-3 Rocket 4.5 00:41:29 50° NNE 00:41:29 50° NNE 00:45:37 10° N
COSMOS 2455 3.4 00:45:01 10° NNW 00:49:34 53° NNW 00:49:34 53° NNW
ATLAS 2AS CENTAUR R/B 4.4 00:50:45 14° WSW 00:56:06 31° NW 01:03:02 10° NNE
Cosmos 2263 Rocket 4.0 01:19:12 22° ENE 01:19:12 22° ENE 01:21:41 10° NE
ATLAS 3B R/B 3.2 01:12:11 10° NW 01:17:16 49° WNW 01:17:16 49° WNW
USA 238 DEB 4.0 01:19:11 10° NNW 01:25:50 64° NE 01:25:50 64° NE
USA 238 4.0 01:19:18 10° NNW 01:25:57 64° NE 01:25:57 64° NE
SL-16 R/B 3.9 01:25:00 10° NW 01:27:44 25° WNW 01:27:44 25° WNW
CZ-4C R/B 3.7 01:34:33 10° NNW 01:41:25 44° NE 01:43:31 36° E
CZ-2C R/B 3.8 01:42:56 10° N 01:46:13 39° N 01:46:13 39° N
Cosmos 1943 4.2 01:48:47 10° N 01:53:14 43° NE 01:53:14 43° NE
NOSS 3-4 (A) 3.9 02:17:55 57° NW 02:17:55 57° NW 02:23:53 10° NNE
NOSS 3-4 (C) 3.9 02:18:01 57° NW 02:18:01 57° NW 02:23:59 10° NNE
NOSS 3-2 (A) 4.1 02:16:04 10° NNW 02:23:42 70° ENE 02:25:29 55° ESE
SL-8 Rocket 4.5 02:30:12 52° NW 02:30:12 52° NW 02:35:31 10° N
Cosmos 2056 Rocket 4.2 02:38:19 51° NNE 02:38:19 51° NNE 02:42:14 10° NNE
Cosmos 2218 Rocket 4.4 02:37:59 55° NW 02:37:59 55° NW 02:43:25 10° N
BREEZE-M DEB (TANK) 4.3 02:30:54 10° NW 02:40:13 51° NNE 02:40:42 49° NE
Meteor 2-19 Rocket 4.5 02:43:48 76° NNE 02:43:48 76° NNE 02:49:30 10° N
Cosmos 2366 rocket 4.4 02:53:00 48° WNW 02:53:00 48° WNW 02:58:17 10° N
Cosmos 1844 Rocket 3.3 02:58:18 48° E 02:58:18 48° E 03:03:24 10° NNE
Cosmos 2263 Rocket 3.5 03:00:53 29° WNW 03:00:53 29° WNW 03:05:30 10° N
Meteor 2-8 Rocket 4.4 02:54:54 10° N 03:00:31 73° NW 03:00:31 73° NW
Cosmos 909 Rocket 4.3 03:01:27 56° WNW 03:01:48 57° WNW 03:08:43 10° NNE
Cosmos 967 Rocket 4.4 03:03:06 87° SSE 03:03:11 87° ESE 03:09:42 10° NNE
Cosmos 1844 4.5 03:05:37 41° ESE 03:05:42 41° ESE 03:11:01 10° NE
IRS-1C 4.4 03:04:17 10° NNE 03:09:25 58° E 03:09:25 58° E
Cosmos 1300 Rocket 4.4 03:18:48 47° N 03:18:48 47° N 03:21:56 10° N
Cosmos 1727 Rocket 4.5 03:13:17 10° NNW 03:18:33 44° WNW 03:18:33 44° WNW
Cosmos 2278 Rocket 3.2 03:18:51 33° ESE 03:19:38 35° ESE 03:24:43 10° NE
Meteor 1-25 Rocket 4.4 03:20:05 62° WNW 03:20:05 62° WNW 03:25:31 10° N
COSMOS 2406 3.5 03:15:13 10° NNW 03:20:57 63° ENE 03:22:28 46° SE
Cosmos 1867 4.4 03:16:18 10° NW 03:19:56 40° NW 03:19:56 40° NW
IRS-P3 4.5 03:19:32 10° N 03:24:25 52° WNW 03:24:25 52° WNW
CBERS 1 LM4 rocket 4.5 03:19:52 10° NNE 03:24:23 72° ENE 03:24:23 72° ENE
Iridium 4 Rocket 4.4 03:23:03 10° NNW 03:26:21 36° NW 03:26:21 36° NW
USA 234 3.4 03:22:08 10° SE 03:28:37 72° NE 03:35:07 10° NW
CZ-4C R/B 3.6 03:23:16 10° NW 03:28:38 35° W 03:28:38 35° W
SL-08 R/B 3.5 03:32:29 69° NW 03:32:29 69° NW 03:36:54 10° NNW
Resurs 1-4 Rocket 3.3 03:30:11 10° NNE 03:35:01 35° E 03:36:39 29° SE
ATLAS 2A CENTAUR R/B 3.2 03:38:19 49° SW 03:40:01 58° S 04:09:05 10° ESE
Cosmos 1452 Rocket 3.7 03:42:56 54° WNW 03:42:59 54° WNW 03:48:07 10° N
Cosmos 1934 Rocket 3.9 03:42:14 58° SSW 03:43:35 86° W 03:49:48 10° N
CENTAUR R/B 3.7 03:38:08 10° NNW 03:45:57 56° ENE 03:54:04 10° SE
ARIANE 5 R/B 2.6 03:42:22 10° NNE 03:47:20 65° ESE 03:48:13 54° SSE
Cosmos 1633 3.5 03:48:48 43° ENE 03:48:48 43° ENE 03:51:55 10° NNE
NOSS 3-2 (C) 4.4 03:43:43 10° NW 03:50:51 40° WSW 03:51:10 40° WSW
Cosmos 1420 Rocket 3.9 03:53:20 65° SSW 03:54:10 88° WNW 03:59:30 10° NNE
ADEOS 3.6 03:49:03 10° N 03:54:11 59° WNW 03:54:43 56° WSW
Cosmos 1536 2.8 03:57:35 80° E 03:57:35 80° E 04:01:39 10° N
Okean 1-7 Rocket 3.9 03:53:49 10° NNW 03:57:55 55° WNW 03:57:55 55° WNW
Okean 1 Rocket 4.2 03:59:23 31° WNW 03:59:23 31° WNW 04:02:43 10° NNW
SME Rocket 4.3 03:59:16 16° SE 04:01:44 35° ENE 04:05:17 10° N
COSMOS 2487 4.0 04:00:07 10° N 04:03:29 36° ENE 04:05:15 22° ESE
Cosmos 489 Rocket 4.3 03:57:51 10° NNW 04:04:07 80° WSW 04:07:26 29° S
Cosmos 1461 3.0 04:04:34 66° SW 04:05:10 79° WNW 04:09:50 10° NNE
Skynet4D Del rocket 3.7 04:06:31 47° S 04:06:37 48° S 04:11:52 10° ESE
SL-16 R/B 2.8 04:01:42 14° SSE 04:07:08 71° ENE 04:13:20 10° N
UNKNOWN OBJECT B 3.7 04:03:27 10° NNE 04:07:24 46° E 04:08:32 36° SE
Gbstr 26 Del rocket 4.4 04:08:34 23° NW 04:09:15 24° NW 04:12:23 10° NNE
Okean O Rocket 3.3 04:08:13 10° NE 04:11:58 28° E 04:14:38 16° SSE
NOSS 2-2 (D) 4.2 04:16:07 36° WNW 04:16:39 38° NW 04:20:52 10° NNE
Cosmos 1605 Rocket 4.0 04:15:15 39° SSW 04:17:32 64° W 04:23:43 10° N
Meteor 2-15 Rocket 4.4 04:11:43 10° N 04:17:54 88° W 04:22:02 22° S
Meteor 1-19 Rocket 4.2 04:12:07 10° N 04:17:57 82° W 04:21:24 26° S
Cosmos 1140 Rocket 3.4 04:13:31 10° NNW 04:18:40 85° ENE 04:22:38 17° SSE
EO 1 Del DPAF 3.1 04:21:45 45° S 04:22:53 89° WSW 04:26:47 10° NNW
Cosmos 1455 Rocket 3.1 04:21:55 36° S 04:23:40 76° E 04:28:08 10° N
Cosmos 724 4.5 04:18:10 10° NW 04:24:08 54° WSW 04:28:29 19° S
Cosmos 2123 Rocket 4.1 04:20:27 10° NNW 04:26:39 58° W 04:29:54 28° SSW
Meteor 1-11 Rocket 4.4 04:25:35 33° WSW 04:27:20 40° WNW 04:32:55 10° N
Cosmos 1850 Rocket 4.0 04:25:06 10° NNW 04:30:22 82° ENE 04:35:39 10° SSE
Cosmos 1025 Rocket 3.2 04:26:19 10° NNW 04:30:30 52° W 04:31:24 43° SW
CZ-2D R/B 2.2 04:25:07 10° N 04:30:31 66° WNW 04:33:03 32° SSW
OAO 3 Copernicus 4.2 04:29:32 35° WSW 04:31:43 89° N 04:36:45 10° ENE
Cosmos 1741 Rocket 4.0 04:26:52 10° NNW 04:32:10 82° ENE 04:37:24 10° SSE
Cosmos 1400 Rocket 3.3 04:40:17 35° WSW 04:40:53 38° W 04:44:33 10° N
Cosmos 1844 Rocket 4.3 04:39:58 16° W 04:42:04 19° WNW 04:46:06 10° NNW
Yuri Rocket 3.5 04:43:14 24° WSW 04:46:26 54° S 04:50:56 10° ESE
APEX 2.4 04:46:28 50° S 04:47:05 81° ESE 04:50:09 10° NNE
Cosmos 1544 Rocket 4.3 04:47:56 28° WSW 04:49:15 35° W 04:53:18 10° NNW
PAYLOAD B 4.5 04:45:53 10° NNE 04:51:29 71° ESE 04:56:51 11° S
Cosmos 2173 Rocket 3.9 04:49:06 14° S 04:54:29 86° W 05:00:39 10° N
USA 129 1.8 04:54:30 51° SE 04:54:54 73° ENE 04:57:00 10° N
Meteor 1-23 Rocket 4.4 04:50:39 10° NNW 04:56:10 51° W 05:00:56 13° SSW
Cosmos 1802 Rocket 3.9 04:55:14 10° S 05:01:20 87° W 05:07:30 10° N
Cosmos 2297 3.9 04:58:40 21° SW 05:02:20 55° WNW 05:07:55 10° N
Cosmos 2278 Rocket 3.4 05:00:42 17° WSW 05:03:41 26° WNW 05:08:24 10° N
Centaur AC-125 3.1 05:03:18 24° SW 05:04:33 33° S 05:11:06 10° ESE
CZ-4B DEB 4.3 05:01:14 10° NNE 05:06:50 84° ESE 05:12:23 10° SSW
Cosmos 1315 Rocket 3.7 05:05:41 22° SW 05:07:35 32° WNW 05:11:15 10° NNW
Tiangong 1 3.1 05:11:17 14° S 05:11:17 14° S 05:12:00 10° S
CZ-4B R/B 3.1 05:05:49 10° NNE 05:10:23 88° E 05:14:48 10° SSW
Cosmos 1459 Rocket 4.1 05:04:45 13° SSW 05:10:29 61° W 05:16:45 10° N
Centaur D-1AR AC-48 4.0 05:11:40 13° SSW 05:11:40 13° SSW 05:13:02 10° S
ATLAS 5 CENTAUR R/B 2.5 05:05:20 10° NNW 05:11:30 86° ENE 05:18:00 10° SSE
USA 234 4.1 05:06:45 10° S 05:11:51 24° WSW 05:16:58 10° WNW
Cosmos 2100 Rocket 4.2 05:07:42 14° SSW 05:13:01 53° W 05:19:10 10° N
Meteor 1-12 Rocket 4.3 05:07:38 11° SSW 05:13:18 68° W 05:19:06 10° N
OTV 4 2.0 05:14:29 18° SSW 05:14:29 18° SSW 05:16:12 10° SSE
Resurs 1-4 Rocket 3.5 05:10:29 10° NNW 05:14:36 23° WNW 05:17:44 14° WSW
IRS-1C Rocket 4.5 05:11:39 10° N 05:16:41 47° WNW 05:21:08 13° SW
Cosmos 614 Rocket 4.4 05:12:36 10° NW 05:17:21 38° W 05:22:02 10° SSW
MOZ.5/SAFIR/RUBIN 5/SL-8 3.8 05:14:46 10° S 05:19:32 83° W 05:24:20 10° NNW
Cosmos 1975 3.1 05:19:22 13° SSW 05:22:47 48° W 05:26:41 10° N
BREEZE M DEB (TANK) 4.0 05:11:00 10° NW 05:23:47 85° SW 05:27:32 10° SE
Cosmos 1174 4.3 05:20:35 10° NNW 05:23:54 49° ENE 05:26:50 10° SE
CZ-4B R/B 3.4 05:18:40 10° N 05:24:15 59° WNW 05:29:46 10° SSW
Cosmos 1346 Rocket 3.2 05:20:42 10° N 05:24:44 68° E 05:28:42 10° SSE
Cosmos 2082 Rocket 2.3 05:21:12 10° NNW 05:26:57 84° ENE 05:32:38 10° SSE
CZ-3C R/B 2.7 05:25:10 11° SSW 05:27:33 18° SSE 05:33:07 10° ESE
Cosmos 1743 3.3 05:30:31 10° S 05:34:17 60° E 05:38:03 10° NNE
Thor Agena Rocket 3.6 05:31:05 10° S 05:36:12 59° WSW 05:41:17 10° NNW
CENTAUR R/B 3.8 05:29:37 10° NW 05:36:23 30° WSW 05:43:18 10° SSW
Okean-O 2.6 05:32:38 10° NNE 05:37:05 88° WNW 05:41:31 10° SSW
Timation 2 Rocket 4.2 05:32:11 10° NW 05:37:51 42° WSW 05:43:24 10° S
Timation 1 Rocket 4.4 05:32:06 10° SSW 05:38:03 67° WNW 05:44:03 10° NNE
ADEOS II 2.6 05:34:01 10° NNE 05:39:14 62° E 05:44:26 10° S
Tsikada Rocket 4.2 05:35:24 10° N 05:41:35 79° E 05:47:47 10° S
Cosmos 1825 Rocket 4.2 05:37:23 10° N 05:41:42 60° E 05:46:01 10° SSE
Cosmos 1500 3.5 05:39:01 10° SSW 05:42:46 49° W 05:46:34 10° N
ASC 2 Rocket 4.1 05:39:17 10° WSW 05:42:56 26° S 05:46:18 10° SE
PSLV R/B 3.3 05:41:09 10° SW 05:44:31 76° SSE 05:47:50 10° ENE
Cosmos 1726 Rocket 4.0 05:40:56 10° S 05:45:19 66° E 05:49:43 10° NNE
BREEZE-M DEB (TANK) 4.4 05:41:37 10° W 05:45:23 28° NW 05:48:31 10° NNE
Cosmos 1515 3.7 05:41:53 10° NNW 05:45:39 61° W 05:49:25 10° S
Meteor PRIRODA 3.9 05:42:41 10° NNE 05:46:22 72° E 05:50:01 10° S
Cosmos 1602 Rocket 4.4 05:43:45 10° NNW 05:47:31 30° W 05:51:19 10° SSW
Cosmos 2058 Rocket 4.0 05:43:43 10° SSE 05:47:56 50° E 05:52:09 10° NNE
ADEOS Rocket 3.5 05:42:27 10° NNE 05:47:56 59° ESE 05:53:46 10° S
Okean O Rocket 3.2 05:45:02 10° NNW 05:48:07 19° WNW 05:51:13 10° WSW
SL-16 R/B 4.1 05:48:07 10° WSW 05:51:10 14° W 05:54:14 10° WNW
Cosmos 1066 Rocket 4.1 05:47:17 10° N 05:52:46 81° W 05:58:07 10° S
